Temp
10 10 10 10 10 10 10 11 12 11 10 10 9 9 9 9 10 10 11 11 11 12 12 12 12 12 12 12 12 12 12 12
9 9 9 9 10 11 10 10 10 10 10 9 9 8 7 8 8 9 9 10 10 11 11 11 11 11 11 11 11 12 12 12
9 9 9 9 8 8 9 9 9 9 9 8 8 8 7 7 7 7 8 9 9 9 9 10 9 9 10 10 10 10 10 10
9 9 8 8 7 7 8 8 8 8 8 8 8 8 7 7 6 7 7 7 8 8 8 8 9 9 9 8 8 9 9 8
9 9 8 8 7 7 7 8 8 8 7 8 8 7 6 5 5 5 7 7 7 7 7 7 8 7 7 7 7 6 7 7
10 9 8 8 7 7 7 7 7 7 7 7 7 6 5 5 5 6 6 7 7 7 8 8 8 8 7 7 6 6 6 6
10 9 9 8 7 7 6 6 6 6 6 5 6 6 6 6 6 7 7 7 7 7 7 7 7 7 7 6 6 6 5 5
10 9 9 8 7 7 6 6 5 5 6 5 5 6 7 7 7 7 7 7 7 7 7 7 7 6 6 5 5 5 4 4
10 9 8 8 7 7 6 6 5 5 6 7 6 7 7 7 7 7 7 7 6 6 5 5 5 5 5 5 5 4 4 3
10 9 9 8 7 6 6 6 5 6 5 6 6 5 5 6 6 6 5 5 4 4 5 5 5 5 5 5 4 3 3 3
10 10 9 8 7 6 6 6 6 5 5 5 5 5 6 6 5 5 6 5 5 6 6 6 6 5 5 4 3 3 3 3
10 10 9 8 7 7 6 6 6 5 6 6 6 6 6 6 6 7 7 7 7 7 7 6 6 5 5 4 3 3 3 3
11 10 9 8 8 7 6 6 6 6 6 6 6 6 6 6 7 7 7 7 7 6 6 6 5 5 4 4 3 3 3 2
11 10 9 8 8 7 6 6 6 6 6 6 6 6 6 7 7 7 7 7 7 6 6 6 5 4 4 2 2 3 2 2
11 10 9 9 8 7 6 6 6 6 6 5 6 6 7 7 7 7 7 7 6 6 5 5 4 4 3 3 3 2 2 2
11 10 9 9 8 7 7 6 6 6 6 6 6 7 7 7 7 7 6 6 6 5 5 4 3 3 3 3 3 2 2 2
11 11 10 9 8 7 7 6 6 7 6 6 7 6 7 6 6 6 6 6 5 4 4 3 2 2 2 2 2 2 1 1
11 11 10 9 9 8 7 6 6 6 6 6 6 6 6 6 6 5 5 5 5 4 3 2 2 1 1 2 2 1 1 1
12 11 10 10 9 8 7 6 6 6 6 6 6 6 6 5 5 5 5 5 5 4 3 2 1 1 1 1 1 1 1 1
Height
1559 1558 1556 1556 1555 1556 1556 1554 1554 1556 1556 1554 1555 1553 1552 1552 1551 1550 1549 1548 1546 1546 1545 1543 1542 1541 1539 1538 1537 1535 1532 1529
1559 1559 1556 1555 1554 1557 1556 1555 1555 1555 1558 1556 1555 1554 1554 1552 1550 1552 1549 1549 1547 1545 1544 1542 1540 1539 1537 1536 1535 1533 1529 1525
1557 1559 1558 1553 1556 1556 1556 1556 1557 1555 1556 1556 1556 1556 1556 1553 1551 1552 1551 1550 1548 1546 1544 1543 1541 1539 1537 1535 1533 1532 1528 1524
1556 1557 1556 1556 1556 1557 1557 1556 1556 1557 1556 1557 1556 1556 1556 1554 1553 1552 1552 1551 1549 1547 1545 1543 1541 1539 1538 1536 1534 1532 1529 1527
1555 1556 1556 1557 1557 1558 1558 1555 1557 1558 1558 1556 1555 1555 1555 1554 1555 1555 1553 1552 1550 1549 1546 1544 1541 1540 1538 1537 1536 1534 1532 1528
1553 1555 1555 1557 1558 1558 1556 1557 1558 1558 1559 1558 1555 1558 1555 1557 1556 1554 1554 1554 1552 1550 1549 1547 1544 1542 1540 1539 1537 1535 1534 1532
1552 1555 1555 1556 1556 1559 1561 1558 1557 1559 1557 1560 1556 1556 1556 1557 1556 1555 1555 1554 1553 1552 1551 1549 1546 1543 1541 1540 1539 1537 1535 1532
1549 1553 1554 1556 1560 1560 1560 1559 1557 1558 1559 1559 1558 1556 1557 1557 1556 1557 1558 1556 1554 1553 1552 1549 1547 1544 1543 1541 1540 1538 1535 1532
1549 1552 1554 1556 1557 1559 1560 1558 1557 1558 1560 1559 1559 1558 1558 1557 1558 1558 1559 1556 1556 1555 1553 1551 1548 1546 1543 1541 1539 1537 1536 1533
1544 1549 1551 1553 1557 1559 1557 1556 1558 1558 1559 1560 1559 1559 1558 1558 1559 1559 1559 1557 1557 1555 1552 1550 1547 1543 1541 1540 1539 1537 1534 1531
1542 1546 1549 1551 1554 1556 1557 1557 1557 1558 1560 1559 1560 1559 1558 1559 1559 1560 1559 1558 1556 1554 1551 1548 1545 1543 1541 1540 1538 1536 1533 1529
1538 1542 1546 1548 1552 1555 1556 1556 1557 1558 1559 1560 1559 1559 1560 1560 1561 1560 1559 1557 1555 1552 1549 1548 1546 1544 1542 1541 1538 1535 1531 1527
1534 1538 1542 1546 1550 1552 1554 1555 1556 1557 1558 1559 1559 1560 1560 1561 1559 1559 1558 1556 1554 1552 1550 1548 1547 1545 1543 1541 1538 1534 1529 1525
1531 1535 1539 1543 1546 1549 1551 1553 1555 1556 1557 1558 1559 1559 1559 1559 1559 1558 1557 1555 1553 1552 1550 1548 1546 1544 1542 1539 1536 1532 1528 1523
1527 1532 1535 1539 1543 1546 1549 1552 1554 1555 1556 1557 1557 1558 1559 1559 1558 1557 1556 1554 1553 1551 1550 1548 1546 1543 1541 1538 1534 1530 1526 1522
1522 1526 1531 1535 1540 1544 1547 1550 1552 1553 1555 1555 1556 1557 1558 1557 1557 1556 1555 1554 1552 1551 1549 1547 1545 1542 1538 1535 1532 1527 1523 1518
1516 1521 1526 1531 1535 1540 1544 1547 1549 1551 1553 1554 1555 1556 1555 1555 1555 1555 1554 1553 1551 1550 1548 1546 1543 1540 1536 1532 1529 1525 1520 1515
1509 1514 1520 1525 1530 1535 1540 1543 1547 1549 1550 1552 1553 1554 1554 1554 1554 1553 1553 1552 1550 1548 1546 1544 1541 1538 1534 1530 1526 1522 1517 1512
1503 1509 1515 1521 1527 1532 1537 1541 1544 1546 1548 1549 1551 1552 1552 1552 1552 1552 1551 1550 1548 1546 1545 1542 1539 1536 1531 1527 1523 1520 1515 1510
Wind_Speed
7 7 6 7 6 8 9 7 11 15 17 15 10 10 9 11 14 15 13 12 11 10 10 11 13 14 14 15 16 17 19 21
10 11 10 10 10 8 10 6 8 12 12 12 8 10 11 11 14 14 14 14 13 13 13 13 14 15 16 16 16 17 20 23
14 9 8 10 9 9 10 10 8 13 12 13 9 6 9 10 10 14 16 15 15 14 14 15 16 17 18 20 20 19 18 21
10 9 9 10 11 8 7 9 8 12 13 14 9 8 8 10 13 14 17 17 16 17 17 17 17 17 19 20 21 22 22 21
16 15 10 7 10 6 5 6 9 9 12 11 10 13 15 14 12 11 14 17 17 18 19 19 20 21 21 22 22 23 21 22
18 15 12 9 9 7 6 7 10 11 12 11 14 13 15 12 11 11 13 15 16 16 17 17 19 19 19 20 21 22 21 20
18 14 14 11 10 9 4 7 11 12 13 14 13 14 12 12 12 12 12 14 16 16 17 18 19 19 19 19 19 19 20 18
20 19 15 11 14 12 6 5 11 11 13 13 12 11 11 11 12 12 11 13 16 17 16 18 19 20 19 19 20 20 20 19
25 22 19 13 16 13 9 6 9 9 9 11 9 9 10 11 10 10 11 12 14 14 15 16 17 19 19 19 21 23 22 20
22 26 17 13 16 13 9 7 8 8 8 7 9 9 9 10 10 10 11 12 12 14 15 17 19 21 22 24 24 25 24 23
26 23 18 13 12 17 10 6 7 8 8 5 6 8 8 8 8 10 10 11 12 15 17 20 22 22 22 24 26 27 27 26
30 24 18 16 12 14 14 8 7 7 5 5 5 6 5 6 7 8 10 11 13 16 18 20 21 22 22 23 25 27 27 27
30 25 23 21 16 14 16 12 8 6 4 4 4 4 4 4 7 8 10 12 14 16 17 18 19 20 19 22 25 27 28 28
32 29 29 24 17 14 15 13 9 8 6 4 3 3 3 4 6 8 10 12 13 15 16 17 19 19 20 23 26 28 29 29
35 33 31 26 21 18 15 15 12 10 8 6 4 2 2 4 5 7 10 11 12 13 15 16 17 19 20 22 26 28 29 28
38 35 33 28 23 21 18 16 14 11 10 8 5 3 2 3 4 7 9 10 11 12 14 15 18 21 22 24 28 30 31 30
40 38 35 31 28 26 23 19 16 14 11 9 6 4 2 2 4 7 9 9 9 11 14 16 20 21 23 27 29 31 31 31
42 42 38 34 32 28 26 22 17 15 12 9 7 5 2 1 4 6 8 8 10 12 14 17 19 21 24 28 31 31 31 30
42 42 39 36 33 29 25 24 20 16 13 11 8 6 3 1 3 5 7 8 11 13 15 17 18 22 26 28 29 29 30 32
Wind_Direction
150 140 123 99 76 60 93 102 118 128 117 98 97 65 20 21 37 41 37 33 27 17 6 352 342 336 331 331 333 337 327 318
111 98 90 89 83 84 88 101 102 139 150 103 85 81 53 35 37 40 38 36 37 35 31 26 19 10 8 2 356 347 334 329
149 149 130 100 91 67 74 90 97 115 120 110 108 105 84 64 39 37 39 37 38 41 39 36 32 26 21 18 17 16 6 358
167 134 111 109 96 87 74 84 95 111 130 134 123 114 113 79 58 42 45 44 44 46 46 42 37 31 27 24 20 17 16 16
151 141 133 120 114 96 88 83 98 113 130 131 121 94 88 79 75 56 45 47 44 44 42 40 40 36 32 28 24 22 16 16
154 146 133 118 118 101 60 89 97 108 109 111 104 102 90 87 82 68 55 52 48 46 43 40 40 36 31 25 20 19 20 18
163 158 153 146 129 126 115 96 99 99 110 100 98 95 98 92 83 69 57 52 48 43 40 38 39 37 33 29 24 21 19 17
165 166 164 152 139 142 131 107 104 102 104 113 101 95 90 83 72 66 58 51 47 41 35 34 33 31 28 26 21 21 18 15
171 174 163 157 149 145 149 135 116 111 105 100 100 92 85 79 71 61 55 47 44 40 37 35 34 30 29 29 21 19 14 12
177 176 176 175 168 160 169 161 140 123 104 95 89 88 79 69 59 53 48 46 42 37 34 31 27 24 20 22 17 12 9 7
175 172 172 184 186 167 158 172 143 129 135 112 98 82 70 61 52 50 45 41 37 33 30 26 24 19 16 15 10 7 4 3
179 179 180 189 200 178 160 179 163 149 139 120 100 90 75 59 51 49 43 36 31 29 25 22 20 14 12 10 4 1 359 357
184 181 183 192 199 181 176 184 183 168 163 135 119 106 82 64 50 43 38 30 27 26 23 20 16 9 11 3 359 359 357 357
183 182 185 190 195 196 185 191 190 177 182 165 151 126 89 58 46 38 33 27 24 20 17 15 11 5 4 357 355 356 356 355
183 185 188 193 199 204 199 188 199 194 188 191 176 156 114 66 47 37 31 24 18 14 12 10 5 360 357 352 353 353 353 351
186 189 190 194 198 198 203 203 204 197 190 196 185 173 136 68 39 33 26 16 10 8 8 6 3 357 352 353 353 351 348 348
190 192 191 193 196 199 201 209 206 198 194 196 186 177 158 62 26 27 16 8 4 7 6 4 359 353 348 346 348 347 347 346
190 193 192 196 199 203 205 208 205 197 195 195 192 188 187 53 18 15 6 2 5 6 4 359 351 347 340 341 342 344 345 346
193 194 195 198 201 205 206 206 208 201 197 197 197 197 207 350 360 4 0 358 3 1 358 350 343 339 333 333 336 341 344 348